Theta_e
351 351 351 351 352 352 353 353 353 351 349 349 350 351 351 351 350 350 351 350 349 350 348 348 347 347 348 349 349 348 349 348 343 342 343 342 342 342 342 342 343 344 344 343 343 341 341 341 342 344 346 345 345 346 347 347 346 346 346 347 346 346 345 343 343 341 340 340 345 346 346 344 342 344 344 343 344 345 345 343 342 342 343 344 344
351 352 352 352 353 353 352 352 352 351 351 351 351 352 352 352 351 350 351 349 349 349 348 350 349 347 347 347 347 346 347 346 342 341 342 342 342 342 342 344 345 345 343 343 342 341 341 341 343 343 344 343 344 345 346 346 346 347 346 346 346 349 347 345 344 341 338 341 345 347 347 346 344 345 345 343 342 344 344 341 339 340 343 344 345
352 353 353 353 353 353 352 352 352 352 352 352 351 350 351 353 352 351 352 350 350 350 348 350 350 348 348 346 346 346 345 343 341 341 342 342 341 341 342 344 345 343 342 342 342 341 341 342 342 343 342 344 346 346 346 346 345 346 347 346 346 349 349 346 345 342 339 341 345 346 347 347 346 346 345 345 344 344 343 341 339 341 343 344 345
353 353 353 353 353 354 353 354 354 353 353 352 351 351 352 352 352 352 353 351 350 350 349 350 350 348 348 347 345 345 344 342 341 340 342 341 341 340 341 342 342 341 341 341 341 341 341 343 343 343 342 344 348 348 350 349 345 345 346 346 346 348 350 348 345 344 341 342 344 343 345 346 346 345 345 345 345 345 344 342 341 343 344 344 345
353 353 353 354 353 354 354 354 354 354 353 352 351 352 353 353 353 352 352 351 349 349 350 350 349 348 346 344 343 343 343 341 340 341 341 341 340 339 339 340 340 340 341 341 341 341 341 343 343 343 342 344 348 348 351 352 348 346 346 346 346 347 349 348 347 345 342 341 342 341 343 345 345 345 346 346 345 345 344 343 343 344 344 344 345
354 354 354 353 353 353 354 355 354 354 353 351 351 351 353 353 353 352 351 350 348 348 349 348 348 347 344 342 340 341 341 340 340 341 341 341 338 337 337 337 339 340 341 342 341 340 341 342 343 344 344 345 348 348 349 351 349 346 345 347 346 345 346 346 347 347 343 341 341 340 341 345 345 345 346 346 346 346 344 344 343 344 344 344 344
354 354 353 352 352 352 352 354 353 353 352 351 350 351 352 353 352 350 350 349 348 348 348 346 345 344 342 340 339 339 340 340 341 341 341 340 336 335 335 337 340 341 341 342 340 339 339 340 341 343 344 345 346 347 347 349 347 345 346 347 347 346 346 346 347 348 346 344 343 340 340 343 345 344 345 346 345 344 345 345 343 343 344 343 343
353 354 353 353 353 352 352 353 354 353 352 350 350 350 351 350 350 349 350 351 349 348 346 343 342 342 340 341 341 338 339 340 340 341 339 337 335 335 335 338 340 340 340 340 338 338 338 338 339 339 340 341 343 344 345 346 346 345 346 346 346 346 346 347 349 349 347 346 344 343 340 340 342 344 345 345 345 344 344 344 343 342 342 342 343
353 353 353 353 353 353 351 351 352 353 352 351 351 350 349 348 348 349 349 350 348 346 344 342 342 341 340 342 343 339 339 339 340 339 337 334 334 335 336 338 339 340 339 338 338 338 338 338 338 338 338 340 343 343 344 346 347 348 348 347 345 345 344 346 349 348 348 347 345 345 343 341 342 343 344 345 346 344 343 343 342 342 342 342 343
353 353 352 352 353 352 350 350 350 351 351 351 350 350 349 348 348 347 347 348 347 344 343 343 343 342 341 342 342 341 339 339 338 337 335 334 335 336 337 337 338 339 339 338 338 339 339 338 338 338 339 341 344 344 346 347 349 351 351 350 347 346 346 346 347 347 348 347 346 346 344 343 343 344 343 344 344 342 343 342 342 341 341 342 342
353 352 351 352 352 352 352 351 351 350 349 348 349 349 349 348 347 347 346 346 346 344 344 345 344 342 342 341 342 340 339 338 337 336 335 335 337 338 337 337 339 339 339 340 340 340 340 339 339 339 339 342 343 344 345 347 350 351 353 353 350 347 348 346 345 346 347 346 347 345 344 344 342 344 344 342 340 340 344 343 342 342 342 341 342
352 350 350 352 352 352 353 352 351 349 349 348 348 347 348 348 348 348 347 346 346 345 344 344 343 342 342 341 341 340 338 338 338 337 337 337 337 338 338 339 339 340 340 341 341 339 339 338 339 340 339 340 342 343 344 346 350 351 352 353 352 349 347 347 345 345 346 345 345 345 345 344 341 342 343 342 339 340 343 344 344 343 342 341 342
351 351 351 352 352 352 352 352 351 351 350 349 348 348 349 349 348 349 348 347 345 343 343 343 342 342 342 341 341 340 339 339 339 338 338 339 339 339 339 339 340 340 341 339 338 336 335 336 337 339 339 340 341 342 343 344 345 348 349 349 351 351 347 346 346 346 347 346 344 344 345 344 340 339 342 342 341 342 343 344 344 344 343 341 342
350 352 352 352 351 351 352 352 352 353 352 352 351 352 352 350 348 348 346 345 344 343 342 342 342 342 342 342 341 340 340 340 340 340 340 340 340 339 339 339 339 339 338 336 335 334 335 336 338 338 338 339 341 341 342 344 343 344 347 347 349 352 350 347 346 347 347 346 345 343 341 342 338 337 341 341 342 345 343 343 345 345 344 342 342
350 350 352 351 350 351 352 351 352 352 352 353 353 352 351 350 349 347 346 345 344 343 342 342 343 343 341 341 341 341 341 341 341 342 343 342 339 338 338 338 337 336 335 335 334 334 335 336 337 338 339 340 341 342 344 345 345 346 346 347 348 349 350 349 347 348 348 346 345 343 340 339 338 337 339 342 345 347 344 342 344 344 343 343 343
351 349 351 352 351 351 351 350 350 351 351 351 351 351 351 351 350 348 347 345 345 344 343 343 343 342 342 342 341 342 342 342 344 344 342 339 338 337 337 336 335 336 336 336 336 335 335 335 337 338 339 340 340 342 344 345 345 346 345 346 348 347 349 351 349 349 348 347 346 344 341 338 338 337 340 344 347 347 343 342 343 342 342 343 343
350 349 351 352 352 350 349 349 348 349 350 350 350 350 351 350 349 348 347 346 345 345 344 344 343 343 343 343 344 343 343 344 345 343 339 336 337 336 336 336 336 338 339 339 338 337 336 337 339 339 339 339 340 341 343 345 346 345 343 344 347 348 349 350 351 349 347 348 347 344 343 340 337 336 341 346 347 346 341 339 341 341 342 342 342
351 350 350 352 351 350 349 349 349 348 348 349 349 349 349 348 347 346 346 346 346 346 345 345 344 344 344 343 345 346 345 344 342 339 336 336 336 336 337 340 340 340 341 341 341 340 340 340 341 341 340 339 339 339 339 342 344 344 345 344 345 347 349 347 350 350 347 347 348 345 344 343 338 336 342 346 347 345 339 337 339 340 342 342 342
349 349 350 350 350 350 349 350 350 349 348 348 349 349 348 347 347 346 346 345 345 345 345 345 345 344 344 343 344 346 344 340 337 335 336 335 335 336 337 340 340 341 341 341 340 341 341 341 340 340 341 340 339 339 339 340 342 344 346 347 346 345 348 347 347 348 346 346 349 348 344 345 341 335 343 348 347 343 337 337 337 339 341 341 342
350 350 351 351 351 350 349 350 350 350 349 349 348 349 349 347 346 346 346 346 346 346 346 345 344 345 343 342 344 344 339 335 335 335 335 335 335 336 336 337 339 340 341 341 341 341 342 339 339 341 342 343 343 343 342 343 344 346 348 350 349 347 348 348 346 344 343 345 349 350 346 346 344 336 343 349 348 343 336 335 337 338 339 339 341
351 352 351 351 352 351 350 349 348 349 349 350 350 349 349 348 345 346 346 346 346 346 347 347 346 346 344 344 345 342 336 335 335 335 335 335 335 337 337 338 338 340 341 342 343 342 341 341 342 344 346 346 346 346 346 346 347 348 350 351 352 349 348 350 348 345 345 346 347 351 349 346 346 338 341 349 347 343 336 333 336 336 338 338 339
352 353 353 351 351 351 351 349 348 349 350 351 351 350 351 351 347 344 345 345 345 347 349 350 347 347 347 347 345 339 335 335 334 334 334 335 337 339 340 340 340 341 342 342 343 344 343 343 345 345 347 348 347 347 345 345 345 346 348 348 349 348 348 349 349 348 348 349 346 349 350 346 345 342 341 348 348 344 338 333 335 336 337 338 337
352 353 353 351 349 351 351 348 348 350 351 352 353 353 353 354 350 344 344 344 343 345 348 350 348 348 348 348 346 340 336 335 334 335 336 339 341 342 342 342 342 343 343 343 344 344 343 343 343 344 345 346 345 343 342 342 342 343 344 345 346 346 347 348 348 349 349 350 348 347 351 346 344 344 342 347 348 346 340 333 334 336 336 338 338
351 352 353 351 348 349 350 348 348 350 352 352 352 353 352 353 353 347 344 344 345 346 347 348 347 347 346 348 347 343 339 336 336 337 340 342 343 344 344 344 344 345 343 340 341 342 341 341 341 342 342 342 341 341 341 342 341 341 344 345 346 346 346 346 346 347 348 349 349 347 349 347 344 346 344 346 348 348 343 335 332 335 335 337 339
354 353 351 351 348 347 348 348 349 351 352 352 352 352 352 353 354 352 347 345 346 347 347 346 345 345 346 348 346 344 340 337 339 341 342 344 345 346 346 346 345 342 340 339 340 340 340 340 341 342 341 340 340 340 340 342 343 343 346 347 346 346 345 346 345 346 346 346 347 346 347 348 346 347 347 345 347 349 346 340 333 333 335 335 339
358 355 352 353 352 348 346 347 348 350 351 350 351 350 351 354 354 352 349 345 345 346 347 345 344 343 344 347 346 344 340 337 341 344 345 346 347 348 347 347 345 341 340 340 340 341 341 341 342 343 341 341 339 339 341 344 347 347 347 347 346 345 344 344 344 344 345 343 344 346 346 348 347 348 350 346 344 347 349 345 338 333 334 334 336
358 356 353 354 355 351 346 345 346 348 349 348 349 350 351 353 352 349 348 346 345 345 344 343 341 341 342 344 344 343 340 339 344 346 346 347 348 348 347 346 344 341 340 340 340 341 341 342 344 344 342 340 339 338 339 341 344 344 344 343 343 346 346 345 344 344 345 344 343 344 346 349 350 350 352 349 344 345 348 348 343 335 334 335 334
358 357 355 354 355 353 347 345 345 345 349 349 349 350 351 352 350 349 347 345 344 343 342 342 342 342 345 345 346 344 342 343 346 346 346 348 348 348 346 344 343 341 340 339 340 339 340 343 345 343 339 337 337 338 338 337 338 341 342 340 341 345 347 346 346 346 344 344 343 344 345 347 350 352 353 351 347 345 345 347 347 341 337 336 335
357 356 356 357 355 352 349 346 347 346 347 349 350 352 353 351 350 350 348 345 343 341 342 345 345 346 348 349 348 348 346 346 347 347 347 348 348 347 346 344 343 341 341 341 341 340 341 343 343 341 337 335 337 339 337 337 337 340 342 342 342 344 344 344 346 347 344 343 343 343 343 344 347 350 352 352 350 347 345 345 347 346 342 339 338
354 355 358 360 357 353 350 348 349 350 349 351 353 356 354 350 351 350 347 347 345 343 345 348 349 350 351 351 350 349 348 348 347 347 348 348 348 347 345 344 344 343 344 345 343 341 342 344 342 339 338 336 338 339 337 338 337 338 342 343 341 341 341 342 346 348 346 345 344 343 343 343 344 346 350 353 352 350 347 345 346 347 346 344 343
356 357 359 360 359 356 352 350 352 353 352 352 355 358 356 350 351 352 350 349 348 348 349 351 352 352 353 354 353 351 349 348 348 348 348 348 349 347 346 345 344 346 347 346 344 342 344 344 341 339 338 336 338 339 338 337 337 338 340 341 340 339 338 338 342 346 347 347 345 345 345 346 346 345 347 351 352 351 350 346 345 346 347 346 345
359 358 358 358 359 358 355 355 356 354 352 353 357 359 355 350 351 353 352 351 353 353 351 352 354 354 354 356 354 353 351 348 347 348 349 349 348 346 345 345 345 347 347 346 345 343 344 344 343 341 339 338 339 339 338 337 337 338 339 340 339 338 337 335 337 341 344 345 344 345 345 346 348 346 345 350 353 352 352 349 345 345 347 348 347
360 358 356 358 358 357 356 359 358 356 354 353 357 358 354 352 351 353 354 354 356 356 354 354 356 356 355 355 354 353 351 349 348 348 349 349 348 346 344 346 346 347 346 344 343 342 342 342 342 341 339 339 339 337 337 337 337 338 339 339 339 338 338 337 338 340 342 342 341 343 344 345 347 348 347 349 352 352 352 352 349 347 347 349 349
359 358 357 357 358 357 356 358 358 357 355 355 357 357 355 355 356 355 356 356 355 354 355 356 357 356 355 355 353 352 351 349 349 349 349 349 348 346 346 346 346 345 344 342 342 342 342 341 340 339 338 338 337 335 336 336 336 337 338 339 339 339 339 339 339 341 341 339 338 339 342 344 346 349 348 348 350 351 350 349 350 350 349 349 348
358 358 358 357 357 358 356 355 355 355 355 356 356 356 356 357 356 357 357 357 355 354 355 355 356 356 355 355 352 350 350 349 349 349 349 349 349 348 348 347 345 344 343 344 344 344 343 341 340 339 337 336 334 335 336 337 337 336 335 336 336 337 338 338 337 337 336 336 335 336 340 342 344 346 347 348 349 349 349 348 348 349 351 350 348
358 358 357 356 356 356 356 355 355 355 356 356 356 356 357 358 357 358 358 357 357 356 354 354 355 356 355 354 351 350 350 349 349 350 350 350 349 349 348 346 345 345 345 346 345 344 342 339 339 337 335 335 333 333 335 337 338 336 334 333 334 336 337 337 337 335 335 335 335 335 337 339 340 341 342 344 346 347 348 350 349 348 350 351 349
356 356 356 356 357 356 356 357 356 357 359 358 358 360 359 359 358 358 358 357 356 356 356 355 353 356 358 356 353 352 352 352 351 351 350 350 348 347 346 347 347 348 347 346 346 345 341 338 337 338 338 337 336 335 334 337 339 338 335 334 335 338 338 338 338 338 338 337 336 336 336 337 338 339 339 340 343 343 345 348 350 349 351 352 351
356 355 355 356 356 356 357 358 359 359 359 358 360 360 359 358 357 356 355 355 356 357 358 356 353 356 358 355 354 353 352 352 351 350 349 347 345 345 347 348 348 347 346 346 347 345 342 339 340 341 341 341 340 339 337 337 339 340 339 338 338 337 336 336 337 338 339 338 338 338 338 339 340 340 340 341 342 341 342 345 347 347 350 351 351
356 355 356 357 356 356 357 358 359 358 357 357 357 357 357 356 354 354 354 355 357 358 359 357 355 356 354 352 354 353 352 352 351 349 347 345 344 346 348 349 348 346 346 346 346 344 343 342 343 343 343 343 343 341 340 339 341 342 342 340 337 336 334 334 336 339 340 339 339 340 340 341 342 343 344 344 343 343 344 345 346 347 348 349 351
356 356 357 357 357 357 358 358 358 357 355 356 356 356 355 355 354 354 354 356 357 358 358 356 355 354 353 351 351 350 349 350 350 348 346 345 346 347 347 347 346 346 347 347 346 345 345 345 344 344 343 343 343 343 343 342 343 343 342 340 339 336 334 336 338 339 338 338 340 341 341 342 342 344 346 347 348 347 347 347 348 349 349 349 349
356 358 358 358 358 358 358 358 357 356 356 356 357 356 355 355 354 354 353 355 356 357 356 355 353 352 352 351 349 348 348 347 347 346 346 346 345 345 344 343 343 344 346 347 346 346 347 345 343 343 343 343 343 343 344 344 344 343 342 341 340 336 334 339 339 337 337 338 340 340 340 340 340 341 343 345 347 347 348 348 347 347 348 349 349
356 357 358 358 358 358 357 357 356 356 356 356 356 355 355 354 353 353 353 353 355 354 354 353 351 352 353 352 350 349 348 347 346 346 347 346 345 343 341 341 343 344 344 344 344 343 344 345 344 344 344 344 344 344 345 345 344 343 342 341 341 337 336 340 338 336 338 339 340 340 336 335 336 338 339 339 340 341 343 345 347 347 346 346 347
357 357 357 358 358 358 357 356 356 356 357 356 356 355 355 354 353 354 354 354 353 353 352 352 351 352 353 353 352 349 346 346 346 346 347 346 344 342 341 343 344 343 342 341 340 340 343 344 345 345 345 345 345 344 344 344 343 343 342 342 343 341 341 341 337 336 337 337 340 338 331 327 328 332 333 332 331 332 335 340 343 345 345 344 345
356 357 357 358 357 357 357 356 356 355 356 357 357 356 355 355 356 355 354 353 352 352 351 352 352 351 353 353 354 351 347 345 346 345 344 342 342 342 342 343 342 342 344 343 343 344 343 344 344 345 346 345 346 344 343 343 343 343 343 343 342 341 344 342 338 336 335 337 338 331 324 325 324 325 326 327 328 327 329 331 335 338 341 343 345
356 356 357 357 356 356 355 355 355 355 356 357 357 358 357 357 356 356 354 353 352 352 352 350 350 351 352 351 351 352 349 345 344 343 343 343 343 343 343 343 342 344 345 344 343 343 342 342 342 343 343 343 344 343 342 341 343 345 343 343 343 342 344 342 339 339 335 336 337 327 323 326 325 325 325 325 325 325 326 327 328 331 334 336 338
356 356 356 356 355 353 353 354 354 356 356 357 359 360 359 357 358 356 355 353 353 352 352 349 347 348 350 348 347 350 347 343 343 344 344 344 343 343 343 342 342 343 343 341 341 340 339 339 340 339 340 340 341 340 341 341 343 344 344 342 342 342 342 341 341 341 336 335 333 327 326 326 324 324 324 323 323 323 325 325 327 329 331 332 332
355 356 355 355 354 352 352 352 353 356 358 359 361 362 361 360 359 357 356 354 353 351 351 348 343 343 346 344 345 346 344 342 343 342 342 342 342 342 341 341 341 340 340 340 340 340 339 338 338 338 339 340 341 341 341 342 340 340 342 341 341 340 341 340 339 339 339 337 331 327 327 324 322 322 321 321 322 322 323 324 327 329 331 332 333
356 356 355 355 353 352 352 352 353 356 360 361 363 363 363 362 360 357 356 355 352 350 350 346 341 340 341 341 342 343 342 342 341 341 341 342 341 340 340 340 339 339 340 339 340 339 338 338 337 337 338 339 341 342 340 340 339 338 339 340 341 340 340 339 337 337 339 339 335 331 328 323 318 319 320 319 319 320 322 324 326 327 329 331 333
356 356 355 355 354 354 353 353 355 358 361 363 364 363 363 360 358 357 356 355 353 351 349 343 338 338 339 340 340 341 341 340 339 340 341 340 340 340 339 338 337 338 339 337 337 338 337 337 336 336 337 337 339 340 338 338 339 339 339 339 340 340 340 339 337 336 336 337 338 335 331 327 322 319 318 318 318 319 322 323 323 324 326 327 329
358 356 356 356 355 355 356 356 356 358 361 362 363 362 360 358 357 357 354 351 352 350 345 340 338 339 339 339 339 341 340 339 339 340 340 340 340 340 338 335 334 337 337 335 335 336 336 336 337 337 336 336 337 337 337 338 339 338 338 339 339 338 339 338 335 335 335 335 335 333 332 331 330 325 318 318 318 317 320 321 321 321 322 323 324
359 358 358 357 357 357 357 357 357 357 360 360 359 357 357 357 357 356 350 345 348 346 341 338 339 340 339 339 339 341 341 339 338 338 339 340 340 339 336 332 333 336 336 334 334 334 335 335 336 336 335 335 336 336 337 338 337 336 335 336 338 338 338 336 335 336 336 335 334 333 332 331 330 327 320 318 318 318 319 319 319 320 320 320 320
Wind_Speed
9 12 16 17 17 19 21 24 25 25 26 26 27 27 26 24 23 23 23 24 24 24 23 23 24 24 23 24 24 22 21 20 20 19 18 17 16 16 15 15 14 13 12 12 12 11 11 11 12 11 11 9 8 7 5 4 4 5 6 6 5 5 4 3 3 4 5 6 7 7 7 6 7 6 5 5 6 6 6 7 7 8 9 9 9
11 14 17 18 19 22 24 25 25 25 25 25 26 25 25 23 23 23 23 24 25 24 23 22 23 24 23 24 24 22 22 20 19 19 18 17 17 16 15 14 13 13 12 12 11 10 10 10 10 10 9 8 6 5 4 4 4 5 6 7 6 5 4 3 2 2 4 5 7 7 6 7 6 5 4 4 5 5 6 6 6 8 9 9 9
13 15 17 19 20 22 25 26 26 25 24 25 26 26 25 24 24 23 24 25 26 25 23 22 22 23 23 23 22 21 21 20 19 19 18 17 17 16 15 14 13 12 11 11 10 10 10 9 9 8 8 7 5 4 4 3 3 4 5 7 8 6 4 2 1 2 2 3 5 6 6 7 7 5 4 4 4 5 5 6 6 8 9 9 9
14 18 18 19 20 22 25 26 26 25 25 25 26 27 26 24 24 24 25 26 26 25 23 23 22 22 22 22 21 21 20 19 19 19 18 17 17 16 15 14 12 12 11 11 10 9 9 9 8 7 6 6 5 4 3 3 3 4 5 7 9 8 5 2 2 3 3 2 4 6 6 7 6 5 3 2 3 4 5 5 6 9 9 10 9
16 19 19 19 20 21 24 25 25 25 25 24 25 27 27 25 25 25 26 26 26 25 23 23 22 22 22 21 21 21 21 20 20 19 18 17 16 16 15 13 12 11 10 10 10 8 8 8 8 7 5 4 4 3 3 3 3 4 5 7 8 9 7 4 3 3 4 3 4 5 6 6 5 5 3 2 3 5 5 5 7 9 10 10 9
19 20 20 21 21 21 24 24 25 26 25 23 24 25 26 26 26 27 27 26 26 25 24 23 23 22 22 22 21 21 21 21 20 18 17 16 16 15 14 13 11 10 10 10 9 8 7 7 7 6 5 4 3 3 2 2 3 3 5 7 8 9 8 5 3 4 5 4 5 5 6 6 4 4 4 3 4 5 5 6 7 9 9 10 9
21 23 21 22 22 22 25 25 25 27 27 25 25 25 26 27 27 28 27 26 26 25 24 24 24 23 22 21 21 21 21 21 20 18 17 16 15 14 13 13 11 10 10 10 9 8 7 6 6 6 5 4 3 2 0 1 2 3 4 5 6 7 8 6 3 5 5 6 6 5 5 5 4 3 4 4 4 5 5 6 7 9 10 9 9
22 24 22 22 22 24 25 26 26 28 29 28 28 27 27 28 28 28 26 26 25 25 25 24 24 23 22 21 20 20 20 20 19 18 17 16 15 14 13 13 12 11 10 10 9 8 7 6 5 5 5 4 3 2 2 2 2 4 4 3 4 5 6 5 3 4 7 8 8 6 6 5 4 4 5 4 4 5 5 6 7 9 10 10 10
22 23 23 23 21 24 25 26 26 26 28 29 30 30 29 29 28 27 26 25 24 24 24 24 23 21 21 20 20 20 20 20 19 18 17 16 15 14 14 13 12 11 10 10 9 8 7 6 4 4 3 3 3 3 2 3 4 4 4 3 3 3 5 4 5 4 6 8 9 8 7 5 5 5 6 6 6 6 5 6 8 9 10 10 10
24 23 24 23 22 23 25 25 24 26 27 28 30 30 29 28 27 26 25 24 23 23 23 22 21 21 21 20 20 20 20 19 18 18 16 16 15 15 14 13 12 11 11 9 9 7 6 4 3 3 3 2 2 2 3 4 5 5 5 4 4 3 3 3 4 5 4 7 10 9 8 6 6 6 6 7 7 6 6 7 8 10 10 10 11
24 24 24 23 22 22 23 23 23 24 26 27 27 27 27 25 24 24 24 23 23 23 22 22 21 21 21 20 20 20 20 19 18 17 16 16 15 15 14 13 12 11 10 8 7 6 4 3 3 3 4 4 3 3 3 4 5 5 6 6 5 5 3 3 3 4 4 7 10 10 9 8 7 7 7 7 7 7 7 8 9 10 11 11 11
25 25 23 22 22 21 21 21 21 22 23 25 25 26 25 24 24 23 23 23 23 23 23 22 22 22 21 21 20 20 19 19 18 17 17 16 15 15 14 13 11 10 8 7 5 4 4 4 4 4 5 5 5 5 5 5 6 5 6 8 7 7 4 2 2 3 4 7 11 11 10 9 8 8 8 8 7 8 8 8 9 11 11 11 11
25 25 23 21 21 21 21 21 21 21 21 23 24 24 23 23 23 23 23 23 23 24 24 23 22 22 21 20 20 19 19 18 17 17 16 15 15 14 12 11 9 8 6 5 4 3 4 5 4 4 5 6 6 6 7 7 7 7 7 9 8 7 6 3 2 1 1 6 10 10 11 10 10 10 9 9 9 8 9 9 10 11 12 11 12
25 25 23 22 21 21 21 21 20 20 21 21 22 23 22 22 22 22 22 23 23 23 23 23 22 21 21 20 19 19 18 17 16 15 14 14 13 12 11 9 7 6 4 3 3 4 4 5 4 5 5 6 7 8 8 8 7 6 7 8 8 7 5 4 5 4 2 3 8 9 10 11 12 12 11 11 11 10 9 10 11 11 12 12 12
25 25 24 22 22 21 20 20 20 21 22 22 22 22 22 22 21 22 22 22 23 22 22 22 21 21 20 19 18 17 16 15 14 13 12 12 11 10 8 7 5 4 3 3 3 4 5 5 6 6 7 8 9 9 9 8 7 6 6 8 9 9 6 4 6 6 4 2 6 8 9 11 12 12 12 12 12 12 10 10 11 12 13 13 13
25 25 24 23 22 21 21 21 21 21 21 21 21 21 21 21 21 21 21 22 22 22 22 21 21 20 19 18 16 15 14 13 12 12 11 11 10 9 7 5 4 3 3 4 5 5 6 7 7 8 8 9 10 11 10 9 9 7 7 8 9 11 9 6 7 7 5 4 6 9 8 10 11 12 13 12 13 13 12 11 11 12 13 13 13
24 24 24 22 22 21 21 21 21 21 20 20 20 20 20 20 21 21 21 21 21 22 22 21 21 19 18 16 15 14 13 12 11 11 11 10 9 7 6 4 3 3 4 5 6 7 8 9 9 10 10 11 11 12 12 12 11 9 8 8 9 10 10 8 8 8 7 7 6 9 8 8 10 11 13 13 13 13 12 13 12 12 13 14 14
22 22 22 21 21 21 21 21 20 20 20 19 18 19 19 20 21 21 20 21 21 21 21 20 19 19 17 16 14 13 12 12 11 10 10 9 8 7 5 4 4 4 5 5 7 8 9 10 11 11 12 11 12 13 13 13 13 11 10 9 9 9 9 9 9 9 9 8 7 8 9 8 9 11 13 14 14 14 13 13 13 13 13 14 14
22 21 21 20 21 21 20 19 19 19 19 19 18 18 18 19 20 20 20 21 21 21 20 20 19 17 16 15 13 12 12 11 11 10 9 9 8 7 6 6 6 6 7 7 8 9 10 11 11 12 12 12 13 13 14 14 13 12 11 9 8 8 9 10 10 9 9 8 7 7 10 10 10 12 13 14 15 15 13 13 14 14 14 14 14
23 22 22 22 21 21 20 19 19 19 19 18 18 18 17 18 19 19 19 20 20 19 18 18 17 15 14 13 12 12 11 10 10 10 9 9 9 8 8 8 8 8 8 9 9 10 10 10 10 11 11 12 12 13 13 13 13 11 10 8 7 7 9 10 11 11 10 8 8 8 10 12 12 13 14 15 16 15 14 14 14 15 15 15 14
22 22 23 23 22 22 21 20 20 19 19 18 17 17 17 17 18 18 17 17 17 17 16 15 14 13 12 11 11 11 10 10 10 10 10 10 9 8 9 9 8 9 9 9 9 10 9 8 8 9 9 10 11 11 11 11 11 9 8 7 7 8 9 10 11 11 11 9 8 8 9 14 14 14 15 16 17 16 15 15 15 15 15 16 15
21 21 22 23 23 23 22 22 21 20 19 18 17 17 17 16 16 17 16 16 16 15 14 13 13 12 11 10 10 10 10 10 10 10 10 9 9 9 9 9 9 10 9 9 9 8 7 6 6 7 7 8 9 9 10 10 10 9 8 8 8 8 8 9 10 11 12 10 9 9 9 14 16 16 16 17 17 17 16 16 16 16 16 17 16
21 22 22 23 24 24 23 23 23 21 20 18 18 18 18 17 17 16 16 16 16 15 14 13 13 12 11 10 10 10 9 9 10 10 10 10 10 10 10 11 11 11 9 8 8 7 5 5 5 5 6 7 8 9 9 10 10 11 10 10 9 8 7 8 10 11 12 12 11 10 10 14 19 19 18 17 18 17 17 17 17 17 17 17 17
23 23 22 22 24 25 24 24 23 23 22 20 19 19 18 18 18 16 15 16 16 16 16 15 14 13 12 11 10 11 10 10 9 10 10 11 11 11 11 12 12 11 9 8 7 6 5 5 5 5 6 7 8 8 9 11 12 12 11 11 10 9 8 8 10 11 12 12 12 12 12 15 20 21 19 18 18 18 18 18 18 17 17 17 18
24 22 23 23 24 25 25 25 24 24 23 21 21 20 19 19 18 16 15 16 17 17 16 16 15 13 12 12 12 12 11 11 10 10 11 11 11 10 10 11 11 10 9 8 7 6 6 6 5 6 7 8 8 8 9 10 11 11 11 11 11 12 11 10 10 10 11 11 12 12 13 15 18 22 21 19 19 19 19 19 19 18 18 18 18
22 21 24 24 24 24 24 25 25 25 23 22 21 21 20 20 20 18 16 16 17 17 16 15 14 13 13 14 14 13 13 12 11 10 11 11 11 10 10 11 10 10 10 9 7 6 6 6 6 6 7 7 7 7 7 8 9 9 9 9 10 12 13 12 11 11 11 11 11 12 13 14 16 20 22 21 21 21 20 20 20 19 18 19 19
22 23 25 24 24 24 24 25 25 25 23 21 20 21 21 21 20 19 18 17 17 17 16 15 13 13 13 14 14 13 13 13 12 10 10 11 11 11 12 11 10 10 10 9 8 7 7 7 6 5 5 6 7 8 8 8 9 10 10 10 10 11 12 13 13 12 12 12 12 12 14 15 16 19 22 24 23 22 21 21 20 20 19 20 20
23 24 25 25 25 25 25 25 24 25 23 20 20 20 20 21 20 19 19 18 18 17 15 14 13 13 12 13 13 13 13 13 13 12 11 12 13 13 13 12 11 10 9 7 7 8 8 7 6 5 4 5 8 10 10 10 10 11 11 10 10 10 11 12 13 13 13 14 14 13 14 15 17 19 21 26 26 24 23 22 22 21 20 21 21
26 26 27 27 26 25 25 25 24 24 23 20 19 20 20 21 20 20 19 19 18 18 15 14 13 13 13 13 13 12 13 13 13 13 13 14 14 14 13 12 12 10 8 6 6 7 7 7 5 5 5 7 10 10 11 12 11 11 11 11 9 9 10 12 12 12 11 12 14 14 14 15 17 18 20 24 27 26 24 23 23 23 22 22 22
30 29 28 27 27 25 26 26 23 23 22 19 20 20 20 21 20 20 20 20 19 17 16 15 14 14 14 14 14 13 13 14 13 13 14 14 14 14 14 13 13 12 9 7 6 6 7 6 5 6 7 8 10 11 12 12 12 11 10 11 10 11 11 12 12 11 10 10 11 12 13 15 16 18 19 21 26 27 26 25 25 25 24 24 23
31 29 28 27 26 26 26 26 22 21 21 19 20 21 21 21 21 21 21 20 18 17 17 16 15 15 16 16 15 15 15 15 15 15 15 15 14 14 15 14 14 12 10 9 7 7 7 7 6 7 9 10 12 13 13 13 13 11 10 11 12 12 13 12 12 11 11 10 10 11 12 14 15 18 20 21 24 28 28 27 27 26 26 26 26
30 29 28 26 26 26 26 25 24 22 22 20 20 22 23 21 21 22 22 21 20 19 18 17 17 17 18 19 16 15 16 17 17 17 16 15 15 15 15 14 14 12 11 10 9 8 8 8 9 10 10 12 14 13 12 13 13 11 10 10 11 12 12 11 12 12 11 11 10 11 13 15 15 17 21 23 22 26 30 30 29 28 27 27 27
29 30 29 26 26 27 26 25 24 23 23 22 21 23 24 22 21 22 22 21 21 20 20 20 19 18 19 19 17 16 17 18 18 18 17 16 16 15 15 14 13 12 12 11 11 11 10 10 11 11 12 13 13 11 11 12 11 10 9 9 9 10 10 10 10 11 11 11 11 12 14 16 15 15 18 22 22 24 29 31 31 31 29 28 28
27 28 28 27 26 27 27 26 25 25 24 23 22 23 23 22 22 22 23 23 21 20 19 19 17 16 17 18 16 16 17 18 19 19 17 16 16 15 14 13 13 12 11 11 11 10 10 10 11 11 12 11 11 10 10 10 8 8 7 7 8 8 9 10 11 12 12 12 13 13 14 15 15 14 14 17 21 24 27 30 33 33 31 30 29
26 27 28 27 27 28 28 27 26 26 25 24 24 23 21 20 20 21 24 23 21 20 18 16 17 16 17 17 16 16 17 18 19 19 18 17 16 15 13 12 11 11 11 10 9 8 8 9 9 9 9 9 9 8 8 8 7 6 6 7 8 8 9 11 12 13 13 14 14 13 14 15 15 15 15 15 17 21 26 30 33 35 34 32 31
28 28 28 27 28 29 29 28 28 28 27 26 26 23 20 19 19 19 20 19 18 18 16 15 15 16 18 18 17 16 17 19 20 20 18 17 15 13 12 10 10 10 10 10 9 8 8 7 6 6 7 7 7 7 7 8 8 8 8 8 9 9 10 11 12 13 13 14 15 15 15 16 17 17 17 17 15 16 20 26 33 36 36 34 32
31 30 29 29 30 29 29 29 28 28 27 25 25 23 20 18 17 17 17 16 15 15 14 13 12 16 18 17 16 17 17 18 19 20 18 15 12 10 10 10 9 10 10 10 9 9 8 6 6 6 7 8 8 9 9 9 10 9 10 11 11 11 12 13 13 14 14 15 15 15 14 14 16 17 18 18 17 17 17 20 26 30 33 34 34
32 31 30 30 30 30 30 29 29 28 27 25 24 23 21 18 17 17 17 16 14 12 12 12 13 16 16 15 16 18 18 18 18 17 13 10 11 10 8 8 9 9 9 10 10 9 8 8 8 7 8 9 9 10 9 10 12 12 13 13 12 13 13 14 15 15 14 14 13 13 13 14 14 15 16 17 18 20 22 22 23 25 27 29 32
32 31 31 31 30 31 30 30 30 28 27 26 25 24 22 20 19 18 16 14 12 10 10 11 14 16 14 13 16 17 18 17 15 13 9 9 10 7 6 7 7 8 10 10 10 9 9 10 11 10 10 10 12 11 10 11 13 14 14 14 13 13 12 12 12 12 12 13 13 13 14 14 13 12 12 12 14 18 21 22 22 23 23 23 26
32 32 32 31 31 31 31 31 30 28 27 27 26 24 23 21 19 18 16 13 12 11 11 12 13 13 12 13 14 15 15 14 11 11 9 8 6 4 4 5 5 7 9 11 10 10 10 11 12 13 13 13 14 14 12 11 13 15 15 14 14 11 11 10 8 11 15 14 12 13 15 15 15 14 12 10 10 12 15 18 20 21 22 23 23
30 31 32 31 32 31 31 31 29 28 28 27 26 25 24 21 19 18 17 16 14 13 13 13 13 11 10 12 12 11 12 12 10 9 10 8 6 4 3 3 5 6 7 9 10 12 13 13 12 13 15 15 15 15 12 11 11 12 12 15 14 10 9 7 8 14 17 13 12 14 17 17 16 16 15 14 11 10 10 12 15 17 19 21 22
29 31 32 31 31 30 30 30 29 28 28 27 27 26 25 23 20 19 19 18 17 16 15 13 12 10 9 10 9 7 9 10 10 11 11 9 6 3 3 4 5 5 6 6 7 9 11 11 12 14 16 15 16 16 13 10 8 7 8 10 10 10 8 5 9 16 15 13 12 14 16 16 16 16 16 16 15 14 14 13 11 11 13 15 16
30 31 32 31 30 30 30 29 28 28 28 27 26 25 24 22 20 18 16 16 15 14 12 9 8 8 8 7 7 7 8 11 12 11 9 7 5 4 4 5 4 4 4 4 4 5 6 7 9 13 15 15 16 15 13 10 9 8 7 5 4 7 5 4 11 15 12 12 11 13 15 16 16 15 15 16 17 16 16 15 13 12 12 13 13
30 30 31 31 31 31 30 29 28 28 28 27 26 23 21 21 20 17 14 12 11 9 8 7 6 6 7 7 8 9 10 11 10 9 8 6 5 5 5 5 3 4 4 4 4 4 4 5 7 9 11 13 14 12 10 7 8 7 3 1 2 4 2 4 11 12 10 10 9 14 16 16 17 15 15 16 17 16 16 15 14 13 11 12 13
29 31 32 32 32 32 31 30 29 29 28 27 25 23 22 21 19 16 13 11 9 8 7 8 7 7 8 8 9 10 11 10 10 9 8 7 6 6 5 4 3 3 3 3 3 3 3 3 4 4 4 8 9 8 7 6 5 5 3 1 1 2 2 4 7 6 8 9 8 14 17 18 18 17 18 18 18 18 18 16 15 13 12 11 12
30 32 34 34 33 32 31 31 30 30 29 27 25 25 24 22 20 18 15 12 11 11 10 10 10 10 10 10 10 12 12 11 11 10 10 8 7 7 5 4 3 2 2 2 1 2 1 1 3 3 2 3 5 5 5 6 5 3 3 2 1 1 3 4 3 3 7 6 6 14 17 19 20 18 20 21 21 22 20 19 16 15 14 13 13
32 33 33 34 34 32 31 31 31 31 29 27 26 26 25 24 23 21 19 17 14 13 12 11 11 12 12 12 12 13 12 11 11 11 10 9 8 7 6 5 3 2 2 3 3 3 2 1 2 3 2 2 4 5 6 6 4 2 2 2 2 1 1 1 0 1 4 4 7 14 17 19 19 19 22 23 23 24 22 21 18 16 15 14 14
32 32 32 34 34 32 31 31 31 31 29 28 28 27 26 25 23 21 20 18 15 14 12 11 12 13 14 13 13 13 12 11 10 10 9 9 8 8 6 4 3 3 3 3 3 3 2 2 1 2 2 2 3 5 6 5 2 3 4 3 4 3 2 2 2 1 1 3 7 11 17 21 20 18 21 23 23 23 22 21 19 18 17 15 15
32 32 33 34 34 32 31 31 31 30 28 27 27 26 26 24 22 20 19 17 14 13 13 14 14 15 15 15 14 14 12 10 9 9 9 8 8 7 5 3 2 3 3 2 2 2 2 1 1 2 2 2 2 3 5 4 2 3 5 5 5 4 3 4 3 2 0 2 3 5 12 19 19 18 21 21 22 23 21 21 21 20 19 17 16
33 34 34 33 33 32 31 31 31 30 28 27 27 26 25 24 21 19 17 15 14 15 16 17 17 16 16 16 15 14 12 9 8 9 9 8 7 7 4 2 3 3 3 2 2 2 1 1 2 3 3 3 3 3 4 3 3 4 4 4 4 4 3 3 2 1 0 1 2 3 8 11 12 16 20 21 21 22 20 21 22 22 21 21 19
32 33 33 33 33 32 32 32 31 30 28 27 26 26 25 24 21 19 16 15 16 18 20 20 19 18 17 15 15 14 12 10 9 8 8 7 7 6 3 2 3 3 2 2 2 2 2 2 2 3 3 4 4 3 4 3 2 3 3 3 3 3 1 0 1 1 1 2 2 3 6 8 9 13 18 20 19 19 18 20 22 21 22 23 22
Wind_Direction
114 118 122 128 131 138 137 136 138 143 145 141 139 139 141 145 143 139 137 138 140 141 139 132 130 132 132 129 131 133 130 130 130 128 127 126 127 126 125 123 120 118 119 120 120 118 113 109 106 105 101 98 92 87 85 85 83 76 80 83 80 86 85 78 97 101 104 106 95 85 84 82 84 91 93 92 95 97 102 104 106 111 113 113 117
126 120 126 132 133 136 137 138 139 143 144 141 141 142 144 146 143 139 138 138 140 140 135 131 130 131 131 130 132 133 132 134 133 131 129 128 127 126 125 123 122 122 123 123 122 121 117 112 110 109 105 101 97 96 91 94 94 76 71 70 67 86 91 56 61 102 102 103 93 86 86 84 84 85 85 86 92 100 108 107 108 114 115 117 123
128 122 128 133 134 135 136 137 138 141 142 142 143 145 146 146 144 141 139 138 138 137 135 133 132 132 131 132 133 134 136 137 135 132 130 129 130 128 126 124 124 125 125 124 124 126 124 118 116 115 114 104 91 83 70 75 84 72 67 66 62 77 98 62 65 140 116 102 98 100 96 89 85 78 71 80 98 110 116 110 109 116 118 119 122
128 125 127 131 134 135 133 134 136 139 141 142 143 144 144 143 144 143 141 139 138 138 137 137 136 135 134 134 135 136 138 138 136 133 132 132 132 131 129 128 126 127 127 126 129 132 131 124 119 119 120 108 93 84 58 57 69 70 66 68 68 77 98 108 121 163 161 126 114 116 108 99 96 90 68 55 105 129 125 114 115 119 121 120 121
131 131 133 131 131 134 131 131 132 135 139 142 143 141 140 141 143 144 142 139 139 140 140 140 139 139 138 138 138 139 139 139 137 135 134 133 134 135 135 133 131 130 129 130 134 136 137 129 124 125 130 124 112 104 67 53 60 66 61 59 65 77 93 112 121 164 175 169 147 132 117 107 105 102 102 104 128 147 138 123 123 123 123 123 123
131 130 132 131 131 133 129 129 131 133 138 140 140 141 140 140 143 145 143 142 143 144 144 144 143 142 142 141 140 141 141 141 139 137 136 136 139 141 140 138 137 136 134 136 138 140 141 136 133 135 143 153 139 123 88 58 55 52 56 60 65 73 77 86 124 164 172 180 172 147 127 119 121 110 112 136 148 151 141 129 128 129 126 124 124
127 126 125 131 134 132 128 130 135 136 137 139 142 144 145 144 146 145 145 145 147 147 147 147 146 145 144 144 144 145 145 143 141 141 142 143 145 145 144 144 145 144 143 143 142 145 146 145 145 144 153 170 169 157 222 9 28 22 41 68 74 74 74 76 125 182 181 184 186 163 144 139 145 130 120 144 152 146 142 135 133 134 131 128 126
129 128 128 134 136 133 133 136 138 138 137 141 145 145 148 149 149 147 146 148 150 150 150 149 148 148 148 148 148 149 148 146 146 147 149 150 150 150 150 151 152 151 149 147 147 153 156 161 160 157 163 180 198 212 260 305 327 351 7 50 69 76 82 75 97 181 192 184 189 178 161 153 161 152 136 149 153 150 151 146 142 139 135 132 133
132 131 132 134 134 133 135 136 136 136 138 141 143 144 148 151 150 150 149 150 152 152 152 152 151 152 153 152 152 152 152 152 153 154 156 155 155 155 155 156 157 155 154 154 156 161 165 172 176 177 186 198 212 222 249 290 311 342 351 1 27 68 82 71 91 142 194 187 185 187 180 166 170 169 150 158 162 159 162 156 152 147 142 139 140
133 132 133 132 133 132 131 133 135 136 137 140 142 144 146 149 150 152 152 152 153 155 155 154 155 156 155 154 154 155 157 158 159 159 161 159 158 158 159 159 159 159 160 163 165 167 173 184 202 212 230 245 251 242 249 288 310 333 336 340 358 14 61 75 95 118 173 186 186 189 187 179 176 176 160 168 171 162 165 161 158 154 150 145 144
133 132 133 134 134 133 131 133 137 139 138 139 140 142 143 146 150 153 155 156 156 157 158 157 156 156 155 156 157 159 160 161 162 163 163 162 161 160 161 162 162 163 164 168 172 177 185 207 234 251 269 275 278 278 279 297 307 320 322 321 347 355 25 84 93 118 147 173 182 182 179 182 179 179 171 175 176 163 168 167 164 163 157 152 149
135 135 136 137 137 136 136 136 138 139 140 138 137 140 143 147 152 154 156 158 159 160 159 158 158 157 157 159 160 161 162 163 163 163 163 162 161 162 164 164 165 167 170 175 181 196 218 234 245 260 276 284 284 291 296 298 299 307 319 320 338 351 5 61 76 119 141 158 170 175 174 180 182 184 181 180 181 167 170 172 171 169 163 158 153
139 140 140 141 142 141 141 140 139 138 139 138 138 142 147 152 154 155 157 159 160 160 159 159 160 159 160 161 163 162 163 164 164 164 163 162 162 164 165 166 168 171 179 187 202 226 243 252 258 263 276 290 290 294 298 297 302 309 316 318 329 339 345 344 330 33 116 159 164 171 172 178 184 186 184 183 181 172 171 172 175 174 167 164 157
143 144 145 147 147 146 146 146 143 141 140 140 144 148 153 156 156 157 159 161 160 161 162 162 163 162 163 164 165 164 165 164 164 164 162 161 162 164 165 167 173 182 199 214 240 250 251 258 268 274 281 291 290 292 297 297 302 313 312 306 310 313 320 328 316 327 346 176 168 170 171 176 184 185 184 183 178 175 171 167 174 175 171 170 163
149 150 149 150 151 150 151 150 148 146 146 148 151 155 157 157 158 161 163 164 164 166 167 167 166 166 167 167 167 166 166 166 164 163 162 163 165 166 169 176 185 203 229 244 260 261 261 264 272 280 283 284 286 287 290 292 293 299 303 300 300 295 290 304 308 312 335 278 189 180 177 175 183 186 184 182 176 176 170 165 171 175 176 174 167
153 153 152 153 154 155 155 154 153 152 152 154 156 156 157 159 161 164 165 167 168 170 171 171 170 170 170 168 168 167 167 166 165 167 166 167 170 173 176 182 198 232 259 272 276 273 271 271 274 275 276 278 281 284 285 287 288 289 294 298 297 296 290 280 292 299 315 298 224 195 188 178 184 188 186 183 178 180 173 168 172 175 179 177 172
158 157 156 155 156 159 158 158 157 155 156 157 159 159 160 162 165 167 168 170 171 172 173 174 174 174 173 170 168 168 168 167 168 171 170 171 173 178 183 193 220 255 270 282 282 279 275 273 274 272 273 277 280 285 286 287 288 289 291 295 295 298 298 285 286 296 304 301 258 210 198 188 190 192 188 183 183 186 177 171 174 176 179 180 177
162 162 159 158 161 163 163 161 160 161 161 161 163 163 165 168 170 172 171 173 175 175 175 175 177 178 175 172 169 167 169 172 174 176 176 176 179 188 198 210 228 242 253 265 269 270 270 272 276 276 279 281 283 284 286 288 290 293 296 297 293 290 292 287 286 293 297 301 282 230 210 206 203 197 190 185 187 191 186 177 175 176 180 183 182
165 166 164 165 168 169 168 165 166 168 168 167 167 169 170 173 175 175 175 177 178 178 177 178 180 180 177 173 170 170 175 180 182 183 183 185 191 201 212 220 225 229 237 247 254 261 265 271 277 283 288 288 288 288 288 291 292 296 299 299 294 280 273 275 280 287 291 296 291 247 219 221 217 205 196 189 192 194 192 186 179 178 182 185 185
168 171 172 173 174 173 173 170 171 172 173 172 172 174 175 178 180 179 179 179 181 181 180 180 182 181 179 176 175 178 183 187 189 191 192 196 204 212 223 231 231 232 242 249 255 263 269 276 283 288 292 295 296 297 296 297 298 298 298 300 299 280 267 268 275 280 285 292 292 266 226 223 222 213 203 195 196 197 194 192 186 182 184 187 188
174 178 179 179 178 177 176 174 175 176 176 177 178 180 179 182 184 184 183 182 183 183 183 184 186 185 184 182 183 188 189 192 195 201 205 210 218 223 232 239 240 244 251 257 264 271 275 282 290 294 298 303 304 304 305 304 305 303 300 305 302 285 274 273 276 276 278 282 286 276 234 220 221 216 207 201 201 200 198 196 192 189 188 191 191
182 184 184 183 182 182 180 177 178 179 179 181 184 185 183 185 189 191 189 189 189 188 189 190 191 190 190 190 194 198 195 200 207 214 222 226 230 233 237 240 243 254 262 267 272 272 275 285 293 299 302 305 304 305 308 310 310 307 305 306 305 298 288 278 276 276 276 278 276 273 244 221 219 218 211 206 206 204 203 199 196 196 194 196 196
188 189 187 186 186 185 183 181 181 181 183 187 189 191 189 188 191 194 195 196 196 194 196 197 198 195 193 198 205 210 208 212 221 226 232 235 236 238 240 242 247 259 269 272 270 265 271 283 291 294 295 298 302 306 309 309 311 311 309 307 305 303 298 284 278 277 276 277 273 267 252 227 217 217 214 210 209 207 208 206 202 200 198 200 201
191 191 188 188 190 188 187 186 185 184 186 189 193 196 195 192 192 196 202 203 203 203 203 203 203 200 200 207 214 223 223 221 227 229 232 234 238 242 244 246 249 257 265 268 265 264 273 285 291 290 296 301 301 305 307 308 309 310 309 309 306 302 298 289 283 281 276 274 270 263 254 235 219 215 217 215 212 211 211 210 208 206 203 203 205
189 190 188 189 194 193 190 191 191 189 190 192 194 197 196 194 193 200 207 208 209 209 209 208 208 207 209 216 222 230 233 229 230 231 234 239 244 249 250 248 246 252 263 268 265 266 274 285 291 292 301 303 302 308 309 309 311 309 309 311 312 309 303 295 289 285 280 276 271 263 253 242 226 219 218 219 217 216 215 213 211 211 209 208 208
189 190 189 191 197 197 194 194 195 193 194 198 198 198 198 196 196 204 211 212 214 214 213 213 213 214 215 222 226 230 235 234 232 233 239 246 251 254 254 250 248 256 268 269 263 264 266 270 279 290 297 300 311 319 314 311 309 307 305 305 307 307 305 301 295 289 284 278 271 262 254 248 236 226 221 221 223 221 218 216 215 214 214 213 212
193 194 194 195 199 200 199 197 197 197 198 202 203 201 202 203 202 206 213 213 214 216 216 217 219 219 218 224 227 230 234 235 233 233 238 244 248 251 253 249 249 260 268 266 262 263 258 256 265 279 289 306 328 330 321 312 304 302 297 292 292 295 299 299 297 291 284 274 267 260 256 251 243 233 224 222 225 224 221 219 219 219 217 217 216
196 197 198 199 201 202 202 202 202 202 203 205 208 206 205 208 208 210 214 214 213 215 215 218 220 220 219 221 224 228 232 234 234 233 235 239 241 247 249 245 247 259 265 264 263 260 254 252 258 268 278 316 337 335 326 317 313 313 308 298 288 286 291 293 295 290 281 272 264 259 257 252 245 239 230 227 229 228 224 221 221 222 221 220 219
197 199 200 200 202 203 203 207 207 206 206 207 212 213 211 211 211 214 216 215 215 216 215 217 219 220 223 224 224 226 230 234 235 236 237 239 241 243 243 241 244 255 266 276 275 262 253 254 263 277 290 317 334 334 325 318 317 319 319 313 300 291 289 290 295 291 284 275 267 263 261 256 249 246 240 234 233 231 228 224 222 223 224 223 221
198 200 199 199 202 204 205 209 209 208 209 211 215 217 216 216 214 215 218 219 220 218 219 224 226 227 231 234 234 233 234 238 242 244 243 243 245 242 241 241 241 250 268 285 285 267 256 259 272 291 298 311 326 326 318 314 314 316 316 316 313 306 297 294 296 295 292 285 278 275 272 272 266 260 255 246 239 235 233 228 225 225 225 225 223
199 200 199 198 200 205 208 210 210 210 211 215 219 219 218 218 217 217 220 224 225 224 228 234 237 238 239 241 242 240 240 243 246 249 248 247 248 245 243 245 246 255 272 285 285 270 263 264 272 292 299 306 318 318 312 309 310 314 313 313 315 312 306 300 293 291 292 293 295 292 293 297 286 268 261 256 245 238 237 234 231 229 227 226 225
200 200 200 200 201 206 209 212 213 212 214 218 222 221 218 218 219 221 225 230 231 232 237 242 242 242 243 243 241 240 242 244 245 248 249 248 246 245 245 248 255 264 274 283 285 277 272 268 271 287 295 301 310 312 307 303 306 312 311 311 315 315 315 309 296 293 293 296 303 305 312 313 296 268 257 258 253 240 237 238 237 234 231 229 228
200 203 203 201 202 206 208 211 214 216 217 219 222 219 216 218 220 224 228 232 235 237 241 243 238 237 239 239 236 236 241 244 245 246 248 247 246 247 249 252 260 266 270 276 279 278 277 273 274 284 290 296 305 307 303 300 303 309 311 312 314 317 319 315 305 300 297 299 305 308 313 312 302 285 262 256 255 245 239 239 240 238 234 232 231
198 200 202 203 203 205 207 210 213 217 219 218 219 216 215 217 220 224 226 229 234 238 243 244 238 236 234 231 231 234 239 244 245 246 246 246 247 250 255 259 264 267 269 272 275 278 279 278 279 285 293 300 306 308 306 305 306 309 313 310 306 308 307 303 301 298 294 296 298 300 304 303 299 293 278 265 257 247 241 239 240 241 237 233 233
195 196 201 203 203 204 206 209 210 213 216 216 215 213 215 217 221 225 226 228 230 229 234 240 239 239 234 227 229 233 238 244 244 246 246 246 247 254 262 266 268 268 270 276 282 285 285 285 288 294 302 306 307 310 309 308 312 314 318 312 302 300 295 293 292 291 292 293 292 290 292 295 292 287 287 283 268 252 245 240 238 239 238 234 234
196 198 201 201 202 204 205 207 208 210 212 212 211 214 217 218 223 228 231 233 231 228 230 231 230 232 230 224 226 233 241 245 245 246 246 245 249 260 269 271 271 273 278 284 286 287 291 295 297 296 299 303 309 318 318 311 312 319 323 318 313 310 303 302 299 295 296 294 292 292 290 290 288 286 288 289 283 271 259 249 241 238 238 236 235
198 200 201 200 201 202 203 206 208 210 210 210 211 215 218 220 224 231 238 241 242 242 236 234 233 227 224 221 226 233 239 242 243 242 239 241 253 267 275 274 277 282 285 286 283 284 292 299 298 288 289 299 309 321 329 322 314 317 322 321 322 321 316 313 309 306 304 301 300 300 298 293 288 285 286 288 288 287 282 268 255 247 245 243 238
198 200 201 201 202 203 204 206 208 209 211 211 213 216 218 221 223 229 240 245 248 244 235 239 233 223 222 226 231 232 232 236 237 234 232 245 263 275 278 275 281 286 284 283 280 280 284 290 293 291 289 294 302 313 328 325 313 311 319 325 328 326 322 319 316 316 314 312 314 315 315 314 306 296 288 284 283 285 286 283 276 267 261 254 246
197 200 202 202 202 204 206 208 210 212 213 213 215 218 220 221 221 225 233 236 234 228 227 225 218 222 231 232 236 237 235 235 234 236 245 254 258 266 266 267 277 281 279 278 276 275 280 291 298 301 297 293 294 296 309 316 310 308 312 322 328 327 328 329 327 333 337 334 333 335 338 341 340 333 317 301 290 287 287 287 285 280 275 270 261
198 198 200 201 202 204 206 209 212 213 212 212 215 219 220 219 219 222 223 218 215 216 220 219 223 236 237 231 239 244 242 241 239 241 242 228 215 215 236 261 276 275 274 275 276 278 284 294 298 299 297 295 293 289 296 307 307 306 310 320 329 335 342 348 357 357 354 352 353 357 3 7 9 11 9 356 328 304 297 293 288 281 281 280 275
197 197 199 200 202 203 205 207 210 211 210 211 214 216 216 214 215 218 219 216 215 217 221 230 243 246 239 239 242 236 237 241 233 216 201 183 172 183 232 281 282 282 283 281 283 283 285 289 290 293 294 294 296 295 297 302 302 304 314 324 330 344 1 16 16 2 3 10 14 13 13 13 15 20 24 24 16 357 341 320 301 288 285 283 280
196 197 199 200 202 204 205 207 209 210 211 212 213 214 215 215 217 220 223 224 223 224 227 236 247 249 249 250 237 215 219 216 197 186 181 172 173 195 260 279 275 286 296 292 288 286 286 287 288 291 293 293 296 299 298 294 291 297 316 326 330 346 10 41 7 2 17 24 17 13 12 13 14 16 18 22 25 19 14 6 345 322 307 297 292
197 198 199 200 202 204 206 207 209 211 213 215 215 216 219 222 224 227 229 229 230 231 232 233 235 235 234 228 205 185 186 184 177 179 179 176 191 225 249 252 259 278 283 287 293 296 297 293 288 288 292 295 295 299 301 289 279 289 316 328 323 341 4 27 355 358 17 20 14 11 11 16 16 15 15 17 20 17 14 12 6 354 338 324 316
197 198 199 200 201 204 206 208 211 214 215 217 218 220 223 224 226 230 232 232 232 231 228 221 214 206 203 203 196 185 180 177 175 177 180 185 205 224 226 224 242 266 262 263 276 291 304 304 298 291 291 288 285 297 312 303 281 274 303 337 304 326 327 346 344 347 10 25 20 9 10 13 14 17 19 18 19 16 12 9 7 360 345 329 318
196 198 199 201 203 206 208 210 213 216 217 218 219 220 221 220 220 222 225 225 220 218 213 202 194 181 181 188 187 183 180 176 176 178 176 178 190 196 200 203 211 238 248 258 275 291 310 309 305 304 290 274 276 294 315 328 319 274 248 234 312 322 287 338 341 331 1 24 15 4 8 9 9 14 15 16 16 13 10 8 7 4 351 334 320
199 201 202 204 206 208 210 211 214 217 218 218 218 218 218 218 216 215 213 210 208 212 209 200 196 190 184 182 175 174 175 174 175 173 169 171 175 175 176 180 189 207 228 249 255 250 266 281 286 294 301 283 288 301 311 328 341 314 270 259 312 294 267 329 346 307 340 4 3 0 4 4 7 12 11 12 10 9 10 9 8 9 2 351 337
201 202 203 205 208 211 211 212 215 217 218 218 218 218 218 218 218 219 218 216 213 211 209 206 204 194 183 180 175 170 170 172 172 168 168 172 170 169 174 179 190 205 208 214 217 222 237 251 278 293 304 317 310 312 321 327 335 11 13 353 19 32 240 288 21 292 325 335 343 353 359 1 7 12 10 9 8 6 8 10 11 12 10 4 354
200 200 202 205 208 212 213 214 216 217 218 219 218 218 218 218 218 219 220 221 218 210 204 198 192 185 178 178 176 170 170 174 175 170 169 173 173 172 176 183 195 197 189 191 204 212 219 230 270 312 322 342 336 329 335 338 347 29 44 57 63 64 122 141 84 27 307 307 329 345 351 354 4 14 11 8 7 7 8 12 14 11 9 7 1
198 199 201 204 207 211 214 216 217 218 219 219 218 218 219 219 219 217 215 216 215 207 197 186 181 179 177 176 175 173 174 175 177 176 174 177 179 175 174 193 203 189 182 186 197 199 197 223 342 9 9 6 9 3 358 5 35 44 52 63 61 61 111 134 85 44 285 285 318 333 340 347 356 5 9 8 8 9 12 15 15 13 12 9 3
197 199 202 203 207 210 213 216 218 219 220 219 218 218 218 220 218 213 210 206 200 194 187 182 181 180 179 179 179 178 176 174 174 178 181 181 179 178 180 190 176 164 162 160 153 135 82 42 28 31 32 17 12 16 5 11 49 54 48 51 53 62 100 137 111 61 181 248 279 297 319 335 335 341 356 3 4 8 13 16 17 17 17 13 8
196 199 201 203 206 209 212 215 218 219 219 218 218 219 220 220 217 213 209 200 189 184 182 183 184 183 184 184 183 181 176 173 171 175 184 183 178 182 193 184 161 151 146 139 122 89 58 41 26 14 9 4 357 357 354 354 35 55 41 35 42 55 78 158 205 195 188 206 234 278 300 319 307 312 340 353 357 2 8 14 17 18 16 13 9